Weather History for 03772 - October, 2012

Change the Weather History Date:

Monday, October 1, 2012

  Actual Average Record
Temperature  
Mean Temperature 58 °F -  
Max Temperature 63 °F 58 °F - ()
Min Temperature 51 °F 46 °F - ()
Degree Days  
Heating Degree Days 7    
Growing Degree Days 8 (Base 50)    
Moisture  
Dew Point 54 °F    
Average Humidity 87    
Maximum Humidity 100    
Minimum Humidity 69    
Precipitation  
Precipitation 0.12 in - - ()
Sea Level Pressure  
Sea Level Pressure 29.88 in    
Wind  
Wind Speed 11 mph ()    
Max Wind Speed 16 mph    
Max Gust Speed 23 mph    
Visibility 6.9 miles    
Events Rain    
T = Trace of Precipitation, MM = Missing Value Source: Averaged Metar Reports

Daily Weather History Graph

Daily Weather History Graph

Search for Another Location

Airport or City:

Trip Planner

Search our weather history database for the weather conditions in past years. The results will help you decide how hot, cold, wet, or windy it might be!

Date:

Astronomy

Oct. 01, 2012 Rise Set
Actual Time 7:02 AM BST 6:38 PM BST
Civil Twilight 6:29 AM BST 7:11 PM BST
Nautical Twilight 5:50 AM BST 7:50 PM BST
Astronomical Twilight 5:11 AM BST 8:30 PM BST
Moon 6:49 PM BST 8:33 AM BST
Length of Visible Light 12h 42m
Length of Day
11h 35m
Full, 98% of the Moon is Illuminated
Oct 1
Full
Oct 8
Last Quarter
Oct 15
New
Oct 22
First Quarter
Oct 29
Full

Hourly Weather History & Observations

Time (BST) Temp. Dew Point Humidity Pressure Visibility Wind Dir Wind Speed Gust Speed Precip Events Conditions
12:20 AM 57.2 °F 51.8 °F 82% 29.98 in 6.2 mi SW 12.7 mph - N/A   Scattered Clouds
12:50 AM 58 °F 51 °F 72% 29.95 in 14 mi SSW 16.1 mph - -   Partly Cloudy
12:50 AM 57.2 °F 51.8 °F 82% 29.95 in 6.2 mi SSW 11.5 mph 23.0 mph N/A   Mostly Cloudy
1:20 AM 57.2 °F 51.8 °F 82% 29.95 in 6.2 mi SW 12.7 mph - N/A   Mostly Cloudy
1:50 AM 57.2 °F 51.8 °F 82% 29.95 in 6.2 mi SW 11.5 mph - N/A   Mostly Cloudy
2:20 AM 57.2 °F 51.8 °F 82% 29.95 in 6.2 mi SW 12.7 mph - N/A   Overcast
2:50 AM 59.0 °F 51.8 °F 77% 29.92 in 6.2 mi SW 12.7 mph - N/A   Mostly Cloudy
3:20 AM 59.0 °F 51.8 °F 77% 29.92 in 6.2 mi SW 12.7 mph - N/A   Mostly Cloudy
3:50 AM 58 °F 53 °F 76% 29.92 in 12 mi SSW 13.8 mph - - Rain Rain
3:50 AM 57.2 °F 51.8 °F 82% 29.92 in 6.2 mi SSW 11.5 mph - N/A   Overcast
4:20 AM 57.2 °F 53.6 °F 88% 29.92 in 6.2 mi SSW 11.5 mph - N/A   Overcast
4:50 AM 57.2 °F 53.6 °F 88% 29.89 in 6.2 mi SSW 11.5 mph - N/A   Overcast
5:20 AM 57.2 °F 53.6 °F 88% 29.89 in 3.7 mi SSW 9.2 mph - N/A   Drizzle
5:50 AM 55.4 °F 53.6 °F 94% 29.89 in 3.1 mi South 9.2 mph 23.0 mph N/A Rain Heavy Rain
6:20 AM 55.4 °F 55.4 °F 100% 29.89 in 6.2 mi SSW 10.4 mph - N/A Rain Rain
6:50 AM 57 °F 55 °F 92% 29.88 in 6 mi South 9.2 mph - - Rain Rain
6:50 AM 55.4 °F 55.4 °F 100% 29.89 in 6.2 mi SSW 9.2 mph - N/A Rain Rain
7:20 AM 57.2 °F 55.4 °F 94% 29.89 in 6.2 mi SSW 9.2 mph - N/A Rain Light Rain
7:50 AM 57.2 °F 55.4 °F 94% 29.86 in 6.2 mi SSW 10.4 mph - N/A   Mostly Cloudy
8:20 AM 57.2 °F 57.2 °F 100% 29.86 in 6.2 mi SSW 10.4 mph - N/A   Mostly Cloudy
8:50 AM 57.2 °F 57.2 °F 100% 29.86 in 2.8 mi South 9.2 mph - N/A   Drizzle
9:20 AM 59.0 °F 57.2 °F 94% 29.86 in 3.7 mi SSW 9.2 mph - N/A   Mostly Cloudy
9:50 AM 59 °F 57 °F 92% 29.88 in 1 mi SSW 9.2 mph - - Rain Rain
9:50 AM 59.0 °F 59.0 °F 100% 29.86 in 4.3 mi SW 10.4 mph - N/A Rain Light Rain
10:20 AM 55.4 °F 55.4 °F 100% 29.89 in 3.1 mi WNW 10.4 mph - N/A Rain Light Rain
10:50 AM 55.4 °F 55.4 °F 100% 29.89 in 1.9 mi WNW 5.8 mph - N/A Rain Light Rain
11:20 AM 57.2 °F 55.4 °F 94% 29.86 in 6.2 mi WSW 9.2 mph - N/A   Mostly Cloudy
11:50 AM 57.2 °F 55.4 °F 94% 29.86 in 5.6 mi WSW 9.2 mph 20.7 mph N/A   Mostly Cloudy
12:20 PM 57.2 °F 55.4 °F 94% 29.86 in 5.6 mi WSW 9.2 mph - N/A Rain Rain
12:50 PM 58 °F 55 °F 87% 29.87 in 19 mi WSW 10.4 mph - - Rain Light Rain
12:50 PM 57.2 °F 55.4 °F 94% 29.86 in 6.2 mi WSW 10.4 mph - N/A Rain Light Rain
1:20 PM 59.0 °F 55.4 °F 88% 29.86 in 6.2 mi WSW 11.5 mph - N/A   Mostly Cloudy
1:50 PM 59.0 °F 55.4 °F 88% 29.86 in 6.2 mi West 12.7 mph - N/A   Mostly Cloudy
2:20 PM 59.0 °F 55.4 °F 88% 29.86 in 6.2 mi WSW 13.8 mph - N/A Rain Light Rain
2:50 PM 60.8 °F 55.4 °F 82% 29.86 in 6.2 mi WSW 16.1 mph - N/A   Partly Cloudy
3:20 PM 60.8 °F 55.4 °F 82% 29.86 in 6.2 mi SW 13.8 mph - N/A   Partly Cloudy
3:50 PM 62 °F 54 °F 69% 29.85 in 19 mi SW 13.8 mph - -   Partly Cloudy
3:50 PM 62.6 °F 55.4 °F 77% 29.86 in 6.2 mi SW 15.0 mph - N/A   Partly Cloudy
4:20 PM 62.6 °F 55.4 °F 77% 29.83 in 6.2 mi SW 12.7 mph - N/A   Scattered Clouds
4:50 PM 62.6 °F 53.6 °F 72% 29.86 in 6.2 mi SW 12.7 mph - N/A   Scattered Clouds
5:20 PM 62.6 °F 53.6 °F 72% 29.83 in 6.2 mi SW 12.7 mph - N/A   Partly Cloudy
5:50 PM 60.8 °F 53.6 °F 77% 29.83 in 6.2 mi SSW 10.4 mph - N/A   Partly Cloudy
6:20 PM 59.0 °F 53.6 °F 82% 29.86 in 6.2 mi SW 11.5 mph - N/A   Partly Cloudy
6:50 PM 59 °F 52 °F 72% 29.86 in 18 mi SSW 13.8 mph - -   Scattered Clouds
6:50 PM 59.0 °F 51.8 °F 77% 29.86 in 6.2 mi SSW 10.4 mph - N/A   Scattered Clouds
7:20 PM 57.2 °F 53.6 °F 88% 29.86 in 6.2 mi SW 10.4 mph - N/A   Scattered Clouds
7:50 PM 57.2 °F 53.6 °F 88% 29.86 in 6.2 mi SW 12.7 mph - N/A   Scattered Clouds
8:20 PM 57.2 °F 53.6 °F 88% 29.86 in 6.2 mi SW 11.5 mph - N/A   Mostly Cloudy
8:50 PM 57.2 °F 53.6 °F 88% 29.89 in 6.2 mi SW 13.8 mph - N/A   Partly Cloudy
9:20 PM 55.4 °F 51.8 °F 88% 29.89 in - SW 12.7 mph - N/A   Clear
9:50 PM 56 °F 52 °F 83% 29.89 in 19 mi SW 12.7 mph - -  
9:50 PM 55.4 °F 51.8 °F 88% 29.89 in - SW 11.5 mph - N/A   Clear
10:20 PM 53.6 °F 51.8 °F 94% 29.89 in - SW 8.1 mph - N/A   Clear
10:50 PM 53.6 °F 50.0 °F 88% 29.89 in - SSW 9.2 mph - N/A   Clear
11:20 PM 53.6 °F 50.0 °F 88% 29.89 in - SW 8.1 mph - N/A   Clear
11:50 PM 51.8 °F 50.0 °F 94% 29.89 in - SW 8.1 mph - N/A   Clear